Location: Cuiabá
(15.6014°S, 56.0979°W)
Time: 09:59:30
(UTC-04:00)

Envisat - Pass Details

Date: 30 November 2022
Orbit: 763 x 765 km, 98.2° (Epoch: 02 February)

Event Time Altitude Azimuth Distance (km) Brightness Sun altitude
Exits shadow 02:32:10 - 46° (NE) 2,906 6.1 -32.4°
Reaches altitude 10° 02:34:03 10° 57° (ENE) 2,296 5.6 -32.1°
Maximum altitude 02:37:51 22° 106° (ESE) 1,641 5.3 -31.3°
Drops below altitude 10° 02:41:40 10° 155° (SSE) 2,310 6.2 -30.6°
Sets 02:44:27 0° 170° (S) 3,242 6.9 -30.1°
